• în Republica Moldova
  • Lista ţărilor
  • Pe 7 zile
  • Temperatura apei
  • Hartă satelitară
  • Meteo pe hartă
  • Widget-uri
  • user-avatar
    Intrare

    Meteo pe oră la Eisenstadt

    Astăzi, 27 Februarie, Luni

    Timp Temperatura Precipitaţii Vânt Presiune Umiditate
    00:00 +2°C° 0 mm 2 m/s 722 mmHg 75%
    01:00 +2°C° 0 mm 2 m/s 722 mmHg 72%
    02:00 +2°C° 0 mm 2 m/s 721 mmHg 72%
    03:00 +1°C° 0 mm 2 m/s 721 mmHg 73%
    04:00 +1°C° 0 mm 2 m/s 721 mmHg 73%
    05:00 +1°C° 0 mm 2 m/s 720 mmHg 74%
    06:00 +1°C° 0 mm 2 m/s 720 mmHg 74%
    07:00 +1°C° 0 mm 2 m/s 721 mmHg 68%
    08:00 +3°C° 0 mm 2 m/s 720 mmHg 66%
    09:00 +4°C° 0 mm 2 m/s 720 mmHg 64%
    10:00 +5°C° 0 mm 3 m/s 720 mmHg 62%
    11:00 +7°C° 0 mm 3 m/s 720 mmHg 62%
    12:00 +7°C° 0 mm 4 m/s 719 mmHg 62%
    13:00 +9°C° 0 mm 5 m/s 719 mmHg 61%
    14:00 +8°C° 0 mm 5 m/s 718 mmHg 64%
    15:00 +8°C° 0 mm 5 m/s 718 mmHg 67%
    16:00 +8°C° 0 mm 5 m/s 717 mmHg 70%
    17:00 +7°C° 0 mm 5 m/s 717 mmHg 75%
    18:00 +6°C° 0 mm 5 m/s 716 mmHg 80%
    19:00 +3°C° 0 mm 5 m/s 716 mmHg 85%
    20:00 +3°C° 0 mm 5 m/s 716 mmHg 85%
    21:00 +3°C° 0 mm 4 m/s 715 mmHg 85%
    22:00 +3°C° 0 mm 4 m/s 715 mmHg 86%
    23:00 +1°C° 0 mm 4 m/s 715 mmHg 85%

    Mâine, 28 Februarie, Marţi

    Timp Temperatura Precipitaţii Vânt Presiune Umiditate
    00:00 +1°C° 0 mm 4 m/s 714 mmHg 85%
    01:00 +1°C° 0 mm 4 m/s 714 mmHg 85%
    02:00 0°C° 0 mm 4 m/s 713 mmHg 84%
    03:00 0°C° 0 mm 4 m/s 713 mmHg 83%
    04:00 0°C° 0 mm 5 m/s 712 mmHg 82%
    05:00 -1°C° 0 mm 6 m/s 712 mmHg 81%
    06:00 0°C° 0 mm 7 m/s 711 mmHg 81%
    07:00 0°C° 0 mm 8 m/s 711 mmHg 81%
    08:00 +2°C° 0 mm 8 m/s 711 mmHg 77%
    09:00 +5°C° 0 mm 8 m/s 711 mmHg 72%
    10:00 +7°C° 0 mm 9 m/s 712 mmHg 68%
    11:00 +7°C° 0 mm 8 m/s 712 mmHg 66%
    12:00 +9°C° 0 mm 8 m/s 712 mmHg 63%
    13:00 +10°C° 0 mm 7 m/s 713 mmHg 61%
    14:00 +9°C° 0,1 mm 6 m/s 712 mmHg 66%
    15:00 +8°C° 0,1 mm 5 m/s 712 mmHg 71%
    16:00 +8°C° 0,1 mm 4 m/s 712 mmHg 76%
    17:00 +7°C° 0,1 mm 5 m/s 712 mmHg 78%
    18:00 +7°C° 0,1 mm 5 m/s 711 mmHg 80%
    19:00 +7°C° 0,1 mm 6 m/s 711 mmHg 82%
    20:00 +7°C° 0 mm 6 m/s 710 mmHg 82%
    21:00 +6°C° 0 mm 7 m/s 710 mmHg 83%
    22:00 +6°C° 0 mm 8 m/s 709 mmHg 83%
    23:00 +5°C° 0,3 mm 7 m/s 709 mmHg 84%

    Poimâine, 1 Martie, Miercuri

    Timp Temperatura Precipitaţii Vânt Presiune Umiditate
    00:00 +5°C° 0,3 mm 6 m/s 710 mmHg 84%
    01:00 +5°C° 0,3 mm 6 m/s 710 mmHg 85%
    02:00 +5°C° 1 mm 5 m/s 710 mmHg 84%
    03:00 +3°C° 1 mm 5 m/s 710 mmHg 84%
    04:00 +3°C° 1 mm 4 m/s 710 mmHg 84%
    05:00 +3°C° 0,4 mm 4 m/s 711 mmHg 83%
    06:00 +3°C° 0,4 mm 4 m/s 711 mmHg 83%
    07:00 +1°C° 0,4 mm 4 m/s 712 mmHg 82%
    08:00 +1°C° 0,2 mm 4 m/s 712 mmHg 79%
    09:00 +2°C° 0,2 mm 5 m/s 713 mmHg 76%
    10:00 +2°C° 0,2 mm 5 m/s 714 mmHg 73%
    11:00 +3°C° 0 mm 5 m/s 714 mmHg 70%
    12:00 +3°C° 0 mm 5 m/s 714 mmHg 68%
    13:00 +5°C° 0 mm 4 m/s 714 mmHg 65%
    14:00 +5°C° 0 mm 4 m/s 715 mmHg 66%
    15:00 +5°C° 0 mm 4 m/s 715 mmHg 66%
    16:00 +5°C° 0 mm 4 m/s 716 mmHg 67%
    17:00 +4°C° 0 mm 4 m/s 717 mmHg 72%
    18:00 +3°C° 0 mm 3 m/s 717 mmHg 77%
    19:00 +2°C° 0 mm 3 m/s 718 mmHg 83%
    20:00 +2°C° 0 mm 3 m/s 719 mmHg 83%
    21:00 +1°C° 0 mm 3 m/s 719 mmHg 84%
    22:00 +1°C° 0 mm 3 m/s 720 mmHg 84%
    23:00 +1°C° 0 mm 3 m/s 720 mmHg 84%

    2 Martie, Joi

    Timp Temperatura Precipitaţii Vânt Presiune Umiditate
    00:00 0°C° 0 mm 3 m/s 720 mmHg 84%
    01:00 +1°C° 0 mm 2 m/s 721 mmHg 85%
    02:00 +1°C° 0 mm 2 m/s 721 mmHg 84%
    03:00 +1°C° 0 mm 2 m/s 720 mmHg 83%
    04:00 +1°C° 0 mm 2 m/s 720 mmHg 82%
    05:00 +1°C° 0 mm 2 m/s 720 mmHg 80%
    06:00 +1°C° 0 mm 2 m/s 720 mmHg 79%
    07:00 +2°C° 0 mm 2 m/s 720 mmHg 78%
    08:00 +2°C° 0 mm 3 m/s 721 mmHg 74%
    09:00 +4°C° 0 mm 3 m/s 721 mmHg 70%
    10:00 +7°C° 0 mm 3 m/s 721 mmHg 66%
    11:00 +8°C° 0 mm 3 m/s 721 mmHg 65%
    12:00 +9°C° 0 mm 3 m/s 721 mmHg 64%
    13:00 +10°C° 0 mm 2 m/s 721 mmHg 63%
    14:00 +10°C° 0,1 mm 2 m/s 721 mmHg 66%
    15:00 +10°C° 0,1 mm 2 m/s 721 mmHg 69%
    16:00 +10°C° 0,1 mm 1 m/s 722 mmHg 72%
    17:00 +9°C° 0 mm 1 m/s 722 mmHg 76%
    18:00 +8°C° 0 mm 1 m/s 722 mmHg 80%
    19:00 +6°C° 0 mm 1 m/s 723 mmHg 84%
    20:00 +6°C° 0 mm 1 m/s 723 mmHg 85%
    21:00 +6°C° 0 mm 1 m/s 723 mmHg 86%
    22:00 +6°C° 0 mm 1 m/s 724 mmHg 87%
    23:00 +5°C° 0 mm 1 m/s 724 mmHg 89%

    3 Martie, Vineri

    Timp Temperatura Precipitaţii Vânt Presiune Umiditate
    00:00 +5°C° 0 mm 1 m/s 724 mmHg 90%
    01:00 +4°C° 0 mm 1 m/s 724 mmHg 91%
    02:00 +4°C° 0 mm 1 m/s 724 mmHg 92%
    03:00 +4°C° 0 mm 1 m/s 723 mmHg 92%
    04:00 +3°C° 0 mm 1 m/s 723 mmHg 93%
    05:00 +2°C° 0 mm 2 m/s 723 mmHg 93%
    06:00 +3°C° 0 mm 2 m/s 723 mmHg 93%
    07:00 +3°C° 0 mm 2 m/s 723 mmHg 93%
    08:00 +4°C° 0 mm 2 m/s 723 mmHg 88%
    09:00 +4°C° 0 mm 3 m/s 723 mmHg 83%
    10:00 +6°C° 0 mm 4 m/s 723 mmHg 79%
    11:00 +7°C° 0 mm 4 m/s 723 mmHg 76%
    12:00 +8°C° 0 mm 5 m/s 722 mmHg 73%
    13:00 +9°C° 0 mm 5 m/s 722 mmHg 71%
    14:00 +9°C° 0 mm 6 m/s 721 mmHg 72%
    15:00 +9°C° 0 mm 6 m/s 720 mmHg 73%
    16:00 +8°C° 0 mm 6 m/s 720 mmHg 74%
    17:00 +8°C° 0 mm 6 m/s 720 mmHg 77%
    18:00 +7°C° 0 mm 6 m/s 719 mmHg 81%
    19:00 +5°C° 0 mm 6 m/s 719 mmHg 84%
    20:00 +5°C° 0 mm 6 m/s 718 mmHg 84%
    21:00 +5°C° 0 mm 7 m/s 718 mmHg 84%
    22:00 +5°C° 0 mm 7 m/s 718 mmHg 84%
    23:00 +4°C° 0 mm 7 m/s 718 mmHg 81%

    4 Martie, Sâmbătă

    Timp Temperatura Precipitaţii Vânt Presiune Umiditate
    00:00 +4°C° 0 mm 7 m/s 717 mmHg 79%
    01:00 +4°C° 0 mm 7 m/s 717 mmHg 77%
    02:00 +4°C° 0 mm 7 m/s 717 mmHg 77%
    03:00 +3°C° 0 mm 7 m/s 717 mmHg 77%
    04:00 +3°C° 0 mm 7 m/s 717 mmHg 77%
    05:00 +3°C° 0 mm 7 m/s 717 mmHg 78%
    06:00 +3°C° 0 mm 6 m/s 717 mmHg 79%
    07:00 +3°C° 0 mm 6 m/s 718 mmHg 81%
    08:00 +6°C° 0 mm 5 m/s 718 mmHg 77%
    09:00 +7°C° 0 mm 5 m/s 719 mmHg 73%
    10:00 +8°C° 0 mm 4 m/s 719 mmHg 69%
    11:00 +11°C° 0 mm 4 m/s 719 mmHg 66%
    12:00 +12°C° 0 mm 4 m/s 719 mmHg 63%
    13:00 +13°C° 0 mm 4 m/s 719 mmHg 60%
    14:00 +13°C° 0 mm 4 m/s 719 mmHg 63%
    15:00 +12°C° 0 mm 4 m/s 719 mmHg 65%
    16:00 +12°C° 0 mm 4 m/s 719 mmHg 68%
    17:00 +10°C° 0 mm 5 m/s 719 mmHg 72%
    18:00 +9°C° 0 mm 5 m/s 719 mmHg 77%
    19:00 +8°C° 0 mm 5 m/s 719 mmHg 82%
    20:00 +7°C° 0 mm 5 m/s 719 mmHg 82%
    21:00 +7°C° 0 mm 6 m/s 719 mmHg 81%
    22:00 +7°C° 0 mm 6 m/s 719 mmHg 81%
    23:00 +7°C° 0 mm 6 m/s 719 mmHg 81%
    Arată mai mult